Vertical_Velocity
-3 -3 -4 -4 -4 -4 -3 -2 -3 -3 -4 -4 -4 -3 -3 -2 -2 -2 -2 -2 -3 -4 -3 -3 -2 -2 -2 -1 -1 -1 -1 -0 0 0 0 0 -0 -1 -0 -0 -0 -0 -0 -0 0 1 1 1 1 2 2 2 1 -0 -1 -3 -4 -4 -3 -0 2 3 2 1 0 -0 -0 -0 -1
-2 -2 -2 -3 -3 -3 -3 -2 -2 -3 -3 -3 -3 -3 -3 -3 -3 -3 -3 -3 -3 -3 -3 -3 -2 -2 -1 -1 -1 -1 -1 -1 -1 -0 0 1 1 1 0 0 1 1 0 0 0 1 1 1 2 2 3 3 2 1 -1 -3 -4 -3 -1 1 2 2 0 -0 -0 -0 -0 -0 -0
-2 -2 -2 -2 -3 -3 -4 -3 -3 -3 -3 -3 -3 -4 -4 -4 -3 -3 -3 -2 -2 -2 -3 -3 -2 -1 -1 -1 -0 -0 -1 -1 -1 -1 -0 1 1 2 2 1 1 1 1 1 1 1 1 1 2 3 3 4 2 1 0 -2 -3 -2 -0 1 2 1 -0 -1 -1 -1 -0 -0 -0
-3 -3 -3 -3 -3 -3 -4 -4 -4 -4 -4 -3 -4 -4 -3 -3 -3 -3 -2 -2 -1 -1 -1 -2 -2 -2 -1 -1 -1 -0 -0 -0 -1 -1 -0 1 1 2 2 2 2 2 2 2 2 2 2 2 2 3 3 3 3 3 2 -1 -2 -2 -0 1 1 0 -1 -1 -1 -1 -1 -1 -1
-3 -2 -3 -3 -3 -4 -4 -4 -4 -4 -4 -4 -3 -3 -3 -2 -2 -1 -1 -1 -1 -0 -0 -0 -1 -1 -1 -1 -1 -0 0 1 1 1 1 1 1 2 2 2 2 2 2 2 2 2 2 2 3 3 3 3 3 4 4 0 -2 -2 -0 1 0 -1 -1 -1 -1 -1 -1 -1 -1
-4 -4 -4 -4 -4 -4 -4 -4 -3 -3 -2 -2 -2 -1 -1 -1 -0 0 -0 -0 -0 0 1 0 -0 -0 -0 -0 -0 -0 0 1 2 2 1 1 1 1 2 2 2 1 1 1 1 2 2 3 3 4 4 2 2 5 6 2 -1 -2 -1 -0 -0 -1 -1 -1 -1 -1 -1 -0 0
-4 -4 -5 -5 -4 -4 -3 -2 -2 -1 -1 -0 0 0 0 0 1 1 1 0 -0 -0 -0 0 -0 -1 -1 -1 -1 -1 -1 -0 1 1 1 0 0 0 1 1 1 1 1 0 0 1 2 3 4 5 5 2 3 6 7 1 -1 -2 -2 -1 -1 -0 -1 -1 -1 -1 -0 1 1
-4 -4 -4 -4 -3 -2 -1 -1 -1 -0 0 1 1 1 0 0 0 -0 -0 -0 -1 -1 -1 -1 -1 -1 -2 -2 -2 -2 -2 -2 -1 -1 -1 -1 -2 -2 -1 -0 0 1 1 0 -0 0 1 2 4 5 5 2 4 6 6 1 -1 -2 -3 -2 -1 -0 -1 -1 -1 -1 -0 1 2
-4 -4 -3 -2 -1 -1 -0 0 0 1 1 1 1 1 0 -0 -1 -1 -1 -1 -1 -1 -2 -2 -2 -2 -2 -3 -3 -3 -3 -3 -3 -3 -3 -2 -3 -3 -3 -2 -1 -0 0 0 -0 -0 1 2 4 5 5 2 6 6 5 2 -0 -3 -4 -3 -2 -1 -0 -1 -1 -1 0 1 3
-5 -4 -3 -2 -1 -0 1 1 1 1 1 1 1 0 0 -0 -0 -1 -1 -1 -1 -2 -2 -3 -3 -4 -4 -4 -4 -4 -4 -4 -4 -4 -3 -3 -3 -3 -3 -3 -2 -1 -1 -0 -1 -1 -0 1 4 4 4 5 7 6 4 2 -0 -2 -3 -2 -2 -0 0 -0 -1 -1 -0 2 3
-4 -3 -2 -1 -0 0 0 1 0 0 -0 -0 -0 -0 -0 -0 -1 -1 -1 -1 -2 -3 -3 -4 -4 -5 -5 -5 -4 -4 -3 -3 -3 -3 -3 -2 -2 -2 -2 -2 -2 -2 -2 -2 -2 -2 -1 1 2 3 4 10 8 7 5 5 2 0 -1 -1 -1 -0 1 1 -0 -1 0 2 2
-3 -1 -0 -0 0 -0 -0 -0 -1 -1 -1 -1 -1 -0 -1 -1 -1 -1 -2 -2 -3 -4 -4 -4 -4 -5 -5 -5 -5 -4 -3 -1 -1 -1 -1 -1 -1 -1 -0 -1 -1 -2 -2 -3 -3 -3 -2 -0 -0 4 9 15 12 10 9 9 4 1 -1 -2 -1 0 2 2 0 -0 0 2 2
-1 -0 0 -0 -0 -1 -1 -2 -2 -2 -2 -2 -1 -1 -1 -2 -2 -2 -3 -4 -4 -5 -5 -4 -3 -4 -4 -5 -5 -3 -2 -1 -0 -0 0 0 1 1 1 0 -0 -1 -2 -3 -3 -2 -2 -1 -0 7 15 18 15 12 10 6 1 -2 -4 -2 -0 1 2 3 2 1 0 1 1
0 0 0 -0 -1 -2 -2 -3 -3 -3 -2 -2 -2 -2 -2 -2 -3 -3 -4 -5 -6 -5 -5 -4 -3 -3 -3 -4 -4 -3 -1 0 -0 0 1 1 1 1 1 0 1 1 -0 -2 -2 -1 -1 -2 5 13 18 17 14 11 7 1 -4 -5 -4 -0 2 2 2 1 2 2 1 -0 -0
-0 -0 -1 -1 -2 -3 -4 -4 -4 -3 -3 -3 -3 -2 -3 -3 -4 -4 -5 -6 -6 -5 -4 -4 -4 -4 -3 -3 -3 -2 -0 1 -0 -1 -1 -1 -1 -1 -1 -0 1 3 2 0 -0 -0 -0 1 10 15 15 13 11 8 4 -1 -4 -4 -2 0 1 1 1 -1 1 2 1 -1 -1
-1 -1 -1 -2 -3 -4 -4 -4 -4 -4 -3 -3 -3 -3 -3 -4 -4 -6 -7 -7 -6 -4 -3 -3 -5 -5 -4 -3 -3 -2 -1 -0 -1 -3 -4 -4 -4 -2 -0 2 5 6 6 2 0 0 2 4 10 11 10 9 9 7 3 -0 -2 -2 -1 -1 -0 0 1 1 2 2 1 -0 -1
-2 -2 -2 -2 -3 -4 -4 -4 -4 -4 -4 -3 -4 -4 -4 -5 -6 -6 -7 -7 -6 -4 -3 -3 -5 -6 -6 -4 -3 -3 -3 -3 -3 -4 -4 -4 -2 1 4 7 10 11 8 2 1 1 4 7 7 6 5 6 8 6 3 -0 -1 -0 0 -0 0 1 2 4 3 2 1 0 -1
-2 -2 -2 -2 -3 -4 -4 -4 -4 -4 -4 -4 -4 -4 -4 -5 -6 -6 -6 -5 -5 -5 -5 -4 -4 -5 -5 -5 -4 -4 -4 -5 -4 -3 -2 -0 3 7 11 14 15 12 6 -1 -0 2 4 8 3 1 3 5 6 4 1 -1 0 1 1 1 1 2 3 3 2 2 1 -0 -2
-3 -3 -3 -3 -4 -4 -4 -4 -4 -4 -4 -4 -4 -4 -4 -5 -6 -6 -5 -4 -5 -5 -6 -6 -5 -4 -4 -3 -3 -4 -4 -4 -3 -2 1 5 12 18 23 23 16 8 2 -4 -3 -0 4 7 3 3 4 5 3 0 -2 -2 -0 1 1 1 2 3 3 3 2 2 1 0 -1
-3 -3 -4 -4 -4 -4 -4 -4 -4 -4 -4 -4 -3 -4 -4 -5 -5 -6 -5 -5 -5 -6 -6 -6 -5 -4 -4 -3 -4 -4 -4 -4 -3 -0 4 12 24 34 36 24 9 1 -2 -4 -4 -2 2 6 6 7 7 5 1 -1 -3 -2 -0 1 2 2 4 4 3 2 4 5 5 1 0
-3 -3 -4 -5 -5 -4 -4 -4 -4 -4 -4 -3 -3 -4 -4 -5 -5 -5 -5 -5 -5 -6 -6 -6 -5 -5 -5 -5 -5 -5 -4 -3 -1 2 9 20 38 45 37 11 -1 -4 -2 -1 -3 -1 2 6 7 7 6 4 1 -1 -2 -1 0 2 3 4 6 6 6 7 9 9 7 4 6
-4 -4 -5 -5 -4 -3 -3 -3 -4 -3 -3 -3 -3 -3 -4 -4 -4 -4 -4 -4 -5 -6 -6 -5 -5 -5 -5 -6 -6 -5 -4 -1 1 6 14 27 41 39 23 -2 -4 -2 1 0 -1 -1 2 5 4 3 2 2 1 -0 -1 -2 0 2 5 8 11 12 12 11 11 11 12 12 12
-4 -5 -5 -4 -2 -2 -2 -3 -3 -3 -3 -3 -3 -4 -4 -4 -3 -3 -3 -4 -5 -5 -5 -4 -4 -4 -5 -6 -6 -5 -3 -1 1 8 17 29 33 24 8 -6 -5 -0 4 5 4 2 -0 -2 -2 -2 -1 1 2 1 0 -0 2 6 10 12 14 15 14 10 11 14 15 13 11
-4 -4 -4 -2 -1 -1 -1 -2 -3 -3 -3 -3 -4 -4 -4 -4 -3 -3 -4 -4 -5 -4 -4 -3 -4 -4 -5 -5 -5 -4 -3 -3 -1 5 14 24 23 14 3 -5 -5 -2 6 20 27 21 8 -2 -4 -4 -3 -2 -0 1 2 4 8 11 13 12 11 10 9 7 9 12 13 10 8
-4 -3 -3 -1 -0 -0 -1 -2 -3 -4 -4 -4 -4 -4 -4 -3 -3 -4 -4 -5 -4 -4 -3 -3 -4 -4 -4 -5 -4 -4 -4 -4 -2 1 5 12 12 6 -1 -7 -9 -5 9 36 44 39 26 10 -0 -4 -5 -4 -1 2 5 9 12 12 12 11 10 9 7 4 5 8 9 8 6
-3 -2 -2 -1 -0 -1 -1 -2 -3 -4 -4 -4 -4 -4 -4 -3 -3 -4 -4 -4 -4 -3 -3 -3 -4 -4 -4 -4 -4 -4 -4 -4 -4 -3 -3 -1 1 -1 -5 -11 -13 -6 5 20 20 22 23 18 4 -3 -3 0 6 8 9 7 7 9 11 13 14 12 10 7 6 7 7 6 4
-2 -2 -1 -1 -1 -1 -1 -2 -3 -4 -4 -4 -4 -4 -4 -3 -3 -3 -4 -4 -4 -3 -3 -4 -4 -4 -4 -4 -4 -4 -5 -5 -4 -5 -5 -5 -2 -0 0 -4 -4 2 8 6 2 3 6 9 4 3 6 11 14 12 10 7 9 11 12 13 13 12 12 10 9 7 5 3 3
-2 -2 -2 -2 -1 -1 -1 -2 -3 -3 -4 -4 -4 -4 -3 -3 -3 -3 -3 -4 -3 -3 -3 -4 -5 -5 -4 -3 -3 -4 -4 -4 -4 -4 -4 -3 -2 2 7 9 11 14 12 2 2 3 4 4 6 9 12 16 14 11 9 9 10 10 10 8 7 7 6 7 7 6 3 2 3
-2 -2 -2 -2 -2 -1 -1 -2 -2 -4 -4 -5 -4 -3 -3 -3 -3 -3 -3 -3 -3 -4 -5 -6 -6 -5 -4 -3 -3 -3 -3 -4 -4 -3 -3 -3 -3 -0 4 11 18 21 16 -0 1 4 6 8 10 12 14 13 12 11 8 5 4 3 4 4 4 3 1 -0 -1 -2 -2 -1 0
-1 -2 -2 -3 -2 -2 -1 -1 -3 -4 -5 -5 -4 -3 -2 -2 -3 -3 -3 -3 -4 -5 -6 -6 -5 -5 -4 -4 -3 -3 -3 -3 -3 -3 -3 -4 -5 -4 -1 6 18 24 19 -3 -2 1 5 8 11 14 16 15 14 12 9 4 2 2 3 5 7 5 2 -1 -3 -4 -4 -3 -3
-1 -1 -2 -2 -2 -2 -1 -1 -2 -4 -4 -4 -3 -2 -2 -2 -3 -3 -3 -3 -4 -4 -3 -3 -3 -3 -3 -3 -2 -2 -3 -3 -4 -4 -5 -5 -6 -6 -3 1 13 24 23 -1 -3 -2 2 6 9 13 18 22 24 24 23 18 11 8 8 10 10 9 6 2 0 -0 -1 -1 -2
-1 -1 -1 -1 -1 -1 -1 -1 -2 -3 -3 -3 -3 -2 -2 -2 -3 -3 -2 -2 -2 -2 -2 -2 -3 -3 -3 -3 -2 -2 -3 -3 -4 -4 -5 -5 -6 -5 -4 -1 6 20 26 9 -1 -4 -2 1 5 8 12 16 19 20 20 18 14 11 10 11 10 9 7 4 3 1 -0 -2 -2
-2 -1 -1 -1 -0 -0 -0 -1 -1 -2 -2 -2 -2 -2 -2 -1 -1 -1 -1 -2 -3 -3 -4 -4 -4 -4 -4 -4 -3 -3 -3 -3 -3 -4 -4 -5 -5 -4 -4 -2 -0 13 25 25 2 -5 -4 -1 0 3 6 8 10 10 10 8 6 5 5 6 7 7 7 6 4 2 -0 -2 -2
-2 -2 -1 -0 0 0 0 -0 -1 -1 -1 -2 -1 -1 -1 -1 -1 -0 -1 -2 -3 -3 -4 -4 -4 -5 -4 -4 -3 -3 -3 -3 -3 -3 -4 -4 -4 -4 -4 -3 -1 7 20 37 6 -5 -6 -3 -2 -1 -0 1 2 3 4 4 2 2 2 3 4 4 3 3 1 0 -1 -2 -2
-3 -2 -2 -1 -0 0 0 0 -0 -1 -1 -1 -1 -1 -1 -1 -1 -1 -1 -1 -1 -1 -1 -2 -3 -3 -3 -2 -2 -2 -3 -3 -4 -4 -4 -4 -4 -4 -4 -3 -2 3 15 38 11 -2 -6 -4 -2 -2 -2 -1 -2 -1 -1 -0 1 1 0 1 1 0 -1 -1 -2 -3 -3 -3 -3
-3 -3 -2 -2 -1 -0 -0 0 -0 -1 -1 -1 -1 -1 -1 -1 -1 -1 -1 -1 -0 -0 -0 -1 -1 -2 -2 -2 -2 -3 -3 -4 -4 -4 -4 -4 -4 -5 -5 -4 -3 -0 8 25 16 5 -4 -4 -2 -1 -1 -1 -2 -2 -3 -2 -1 -1 -1 -1 -1 -1 -2 -2 -3 -3 -4 -4 -4
-4 -3 -3 -2 -2 -1 -1 -1 -1 -1 -2 -1 -2 -2 -2 -2 -1 -1 -0 -0 -0 -1 -1 -1 -2 -3 -3 -4 -4 -4 -4 -3 -3 -4 -4 -4 -4 -5 -5 -5 -4 -3 -0 7 16 9 -2 -5 -3 -2 -1 0 -1 -2 -3 -4 -3 -3 -2 -1 -1 -1 -1 -1 -2 -3 -4 -4 -4
-4 -4 -3 -3 -2 -2 -2 -2 -2 -2 -1 -2 -2 -3 -3 -3 -2 -1 -1 -1 -1 -1 -1 -1 -2 -3 -4 -5 -5 -4 -4 -3 -3 -3 -4 -4 -5 -5 -5 -5 -4 -4 -4 -3 6 4 -3 -7 -5 -4 -3 -1 -1 -1 -2 -4 -4 -4 -3 -3 -3 -2 -2 -2 -2 -2 -3 -3 -3
-5 -4 -4 -3 -3 -2 -3 -3 -2 -2 -1 -2 -2 -3 -3 -3 -3 -3 -2 -1 -1 -1 -1 -1 -2 -3 -4 -4 -4 -4 -3 -3 -3 -3 -4 -4 -5 -5 -4 -4 -4 -4 -4 -3 -2 -2 -3 -7 -6 -4 -3 -4 -2 -2 -1 -3 -3 -4 -4 -4 -4 -4 -4 -3 -3 -3 -3 -3 -3
-4 -4 -4 -3 -2 -2 -3 -3 -3 -2 -2 -2 -2 -2 -3 -4 -4 -3 -2 -0 0 0 -0 -0 -1 -2 -3 -4 -4 -3 -3 -3 -3 -3 -4 -4 -4 -4 -4 -4 -4 -4 -3 -2 -3 -2 -2 -4 -7 -6 -3 -2 -3 -3 -2 -1 -1 -2 -2 -3 -3 -4 -4 -4 -4 -4 -4 -4 -4
-4 -4 -3 -3 -2 -2 -3 -3 -3 -3 -2 -2 -2 -2 -3 -4 -4 -3 -1 0 1 1 0 0 -0 -1 -2 -3 -3 -3 -3 -3 -3 -3 -4 -4 -4 -4 -4 -4 -4 -4 -4 -3 -2 -1 -1 -0 -6 -8 -6 -1 -1 -2 -2 -1 -1 -1 -1 -1 -2 -2 -2 -3 -4 -4 -4 -4 -4
Height
3030 3027 3023 3020 3016 3013 3010 3007 3004 3001 2997 2994 2992 2989 2986 2983 2981 2978 2975 2972 2969 2967 2964 2961 2959 2956 2954 2952 2949 2947 2945 2943 2941 2939 2938 2936 2934 2933 2932 2930 2929 2928 2927 2926 2926 2925 2924 2924 2923 2923 2922 2922 2921 2920 2920 2919 2918 2918 2918 2919 2920 2921 2921 2921 2920 2920 2920 2920 2919
3029 3025 3022 3018 3015 3012 3008 3005 3002 2999 2996 2993 2990 2987 2984 2981 2978 2975 2972 2970 2967 2964 2961 2958 2956 2953 2951 2948 2946 2944 2942 2940 2938 2936 2934 2933 2931 2930 2928 2927 2926 2925 2924 2923 2922 2922 2921 2920 2920 2920 2919 2919 2918 2917 2917 2916 2916 2916 2916 2917 2918 2918 2918 2918 2918 2918 2918 2918 2917
3027 3024 3020 3017 3013 3010 3007 3003 3000 2997 2994 2991 2987 2984 2981 2978 2976 2973 2970 2967 2964 2961 2958 2956 2953 2951 2948 2946 2943 2941 2939 2937 2935 2933 2931 2930 2928 2927 2925 2924 2922 2922 2921 2920 2919 2918 2917 2917 2917 2917 2916 2916 2915 2915 2914 2913 2913 2913 2914 2915 2916 2916 2916 2916 2916 2916 2916 2916 2916
3027 3023 3019 3016 3012 3008 3005 3002 2998 2995 2992 2989 2986 2982 2979 2976 2973 2970 2967 2965 2962 2959 2956 2953 2951 2948 2946 2943 2941 2938 2936 2934 2932 2930 2928 2927 2925 2923 2922 2921 2919 2918 2917 2917 2916 2915 2914 2914 2913 2913 2913 2913 2912 2912 2912 2911 2911 2911 2912 2913 2914 2914 2914 2914 2914 2914 2914 2914 2914
3025 3022 3018 3014 3011 3007 3003 3000 2997 2993 2990 2987 2984 2981 2977 2975 2972 2969 2966 2963 2960 2957 2954 2951 2948 2946 2943 2941 2938 2936 2934 2932 2930 2928 2926 2924 2922 2921 2919 2918 2917 2916 2915 2914 2913 2912 2912 2911 2910 2910 2910 2910 2910 2910 2910 2909 2908 2909 2910 2911 2912 2912 2912 2912 2912 2912 2912 2912 2912
3024 3020 3017 3013 3009 3006 3002 2999 2995 2992 2989 2985 2982 2979 2976 2973 2970 2967 2964 2961 2958 2955 2952 2949 2947 2944 2941 2939 2937 2934 2932 2930 2928 2926 2924 2922 2920 2918 2917 2915 2914 2913 2912 2911 2910 2910 2909 2908 2908 2907 2907 2907 2907 2908 2908 2907 2907 2907 2908 2910 2910 2911 2911 2911 2911 2911 2911 2911 2911
3023 3019 3015 3012 3008 3004 3001 2997 2994 2991 2988 2984 2981 2978 2975 2972 2969 2966 2962 2959 2956 2953 2950 2947 2944 2942 2939 2937 2934 2932 2930 2928 2926 2923 2921 2919 2917 2915 2914 2912 2911 2910 2909 2908 2908 2907 2907 2906 2906 2905 2905 2905 2906 2907 2906 2905 2905 2906 2907 2908 2909 2909 2909 2909 2909 2910 2910 2910 2910
3022 3018 3014 3011 3007 3003 3000 2997 2993 2990 2987 2983 2980 2977 2973 2970 2967 2963 2960 2957 2954 2951 2948 2945 2942 2940 2937 2935 2933 2930 2928 2926 2923 2921 2919 2917 2915 2913 2911 2909 2908 2907 2906 2905 2905 2904 2904 2903 2903 2903 2903 2903 2904 2905 2905 2904 2904 2905 2906 2907 2907 2908 2908 2908 2908 2908 2908 2908 2908
3021 3017 3014 3010 3007 3003 3000 2996 2993 2989 2986 2982 2979 2975 2972 2968 2965 2962 2958 2955 2952 2949 2946 2944 2941 2938 2936 2934 2931 2929 2926 2924 2921 2919 2917 2914 2912 2910 2908 2907 2905 2904 2903 2902 2902 2902 2901 2901 2901 2901 2902 2902 2903 2903 2903 2903 2903 2904 2905 2905 2906 2907 2907 2907 2907 2907 2907 2907 2907
3020 3017 3013 3010 3006 3003 2999 2996 2992 2988 2985 2981 2977 2973 2970 2967 2963 2960 2957 2954 2951 2948 2945 2942 2940 2937 2935 2932 2930 2927 2925 2922 2919 2917 2915 2912 2910 2908 2906 2904 2902 2901 2900 2899 2899 2899 2899 2899 2899 2900 2901 2902 2902 2902 2902 2902 2902 2903 2903 2904 2905 2905 2906 2906 2906 2906 2906 2906 2906
3020 3016 3013 3009 3006 3002 2998 2995 2991 2987 2983 2979 2975 2972 2968 2965 2962 2958 2955 2952 2950 2947 2944 2941 2938 2936 2933 2931 2928 2926 2923 2921 2918 2915 2913 2910 2908 2906 2904 2902 2900 2899 2898 2897 2896 2896 2896 2897 2897 2899 2900 2901 2902 2902 2902 2902 2902 2902 2902 2903 2904 2904 2904 2905 2905 2905 2905 2905 2905
3019 3016 3012 3009 3005 3002 2997 2994 2990 2986 2982 2977 2974 2970 2967 2963 2960 2957 2954 2952 2949 2946 2943 2941 2938 2935 2932 2930 2927 2925 2922 2919 2917 2914 2911 2909 2907 2904 2902 2901 2899 2897 2896 2894 2894 2894 2894 2895 2897 2898 2900 2901 2901 2901 2901 2901 2901 2901 2902 2902 2903 2903 2903 2904 2904 2904 2904 2904 2904
3019 3015 3012 3008 3004 3000 2997 2992 2988 2984 2980 2976 2972 2969 2965 2962 2959 2956 2953 2951 2948 2945 2942 2940 2937 2935 2932 2929 2927 2924 2921 2919 2916 2913 2911 2908 2906 2904 2902 2899 2897 2896 2894 2892 2892 2892 2893 2894 2896 2898 2899 2900 2900 2900 2900 2900 2900 2900 2901 2902 2902 2902 2902 2903 2903 2903 2903 2903 2903
3018 3015 3011 3007 3003 2999 2995 2991 2987 2983 2979 2975 2971 2967 2964 2961 2958 2955 2953 2950 2947 2945 2942 2940 2937 2935 2932 2929 2927 2924 2921 2918 2915 2913 2910 2908 2905 2903 2901 2898 2896 2894 2892 2891 2891 2891 2892 2894 2896 2898 2899 2898 2898 2898 2899 2899 2899 2900 2900 2900 2901 2901 2901 2902 2902 2902 2902 2902 2902
3018 3014 3011 3007 3002 2998 2994 2990 2986 2982 2978 2974 2970 2967 2963 2960 2957 2955 2952 2950 2947 2945 2942 2940 2937 2935 2932 2930 2927 2924 2921 2918 2916 2913 2910 2908 2905 2903 2900 2898 2896 2894 2892 2891 2890 2891 2892 2894 2896 2897 2898 2897 2897 2898 2898 2898 2898 2899 2899 2899 2900 2900 2900 2901 2901 2901 2901 2901 2902
3017 3013 3010 3006 3002 2997 2993 2989 2985 2981 2977 2973 2969 2966 2963 2960 2957 2954 2952 2949 2947 2945 2942 2940 2938 2935 2932 2930 2927 2924 2922 2919 2916 2913 2911 2908 2906 2903 2901 2898 2896 2894 2892 2891 2891 2891 2892 2894 2896 2897 2897 2897 2897 2897 2897 2898 2898 2898 2898 2899 2899 2899 2900 2900 2900 2900 2901 2901 2902
3017 3013 3009 3005 3001 2997 2992 2988 2984 2980 2976 2972 2969 2966 2962 2960 2957 2954 2952 2950 2947 2945 2943 2941 2938 2936 2933 2931 2928 2925 2922 2920 2917 2914 2912 2909 2907 2904 2902 2900 2897 2896 2894 2892 2892 2892 2893 2895 2897 2897 2896 2896 2897 2897 2897 2897 2897 2898 2898 2898 2898 2899 2899 2899 2900 2900 2901 2901 2902
3016 3012 3008 3004 3000 2996 2992 2988 2984 2980 2976 2972 2969 2965 2962 2960 2957 2955 2952 2950 2948 2946 2943 2941 2939 2936 2934 2932 2929 2927 2923 2921 2918 2916 2913 2910 2908 2905 2903 2901 2899 2897 2896 2894 2894 2894 2895 2897 2897 2897 2897 2897 2897 2897 2897 2897 2897 2897 2897 2898 2898 2898 2898 2899 2900 2900 2901 2901 2902
3015 3011 3007 3004 3000 2996 2992 2987 2983 2979 2976 2972 2969 2966 2962 2960 2957 2955 2953 2951 2948 2946 2944 2942 2939 2937 2935 2933 2931 2928 2925 2922 2919 2917 2914 2912 2909 2907 2904 2902 2901 2899 2898 2897 2896 2896 2897 2898 2898 2898 2898 2898 2898 2898 2898 2897 2897 2897 2897 2897 2898 2898 2899 2899 2900 2901 2901 2902 2902
3014 3011 3007 3003 2999 2995 2991 2987 2983 2979 2975 2972 2969 2966 2963 2960 2957 2955 2953 2951 2949 2947 2945 2942 2940 2938 2937 2934 2932 2929 2927 2923 2921 2918 2915 2913 2910 2908 2906 2904 2902 2901 2900 2899 2899 2899 2900 2901 2900 2900 2899 2899 2899 2898 2898 2897 2897 2897 2897 2898 2898 2899 2899 2900 2901 2902 2902 2902 2902
3014 3010 3006 3002 2999 2995 2991 2987 2983 2979 2975 2972 2969 2966 2963 2960 2958 2956 2953 2951 2949 2947 2945 2943 2942 2940 2938 2936 2933 2930 2927 2925 2922 2919 2917 2914 2912 2909 2907 2906 2905 2904 2903 2903 2903 2903 2903 2902 2902 2901 2901 2900 2899 2899 2898 2898 2898 2898 2898 2898 2899 2899 2900 2901 2902 2902 2902 2902 2902
3013 3010 3006 3002 2998 2995 2991 2987 2983 2979 2976 2972 2969 2966 2963 2961 2958 2956 2954 2952 2950 2948 2946 2944 2942 2941 2939 2937 2934 2931 2929 2926 2924 2922 2919 2916 2914 2911 2909 2908 2908 2907 2907 2907 2906 2906 2905 2904 2903 2902 2902 2901 2900 2899 2899 2898 2898 2898 2898 2899 2899 2900 2901 2902 2902 2902 2901 2901 2902
3013 3009 3006 3002 2999 2995 2991 2987 2983 2979 2976 2972 2969 2966 2963 2961 2958 2957 2954 2952 2950 2948 2947 2945 2943 2942 2939 2937 2935 2932 2930 2928 2926 2923 2921 2919 2916 2914 2912 2912 2911 2911 2910 2910 2909 2907 2906 2905 2904 2903 2903 2902 2901 2900 2900 2899 2899 2899 2899 2899 2900 2900 2901 2901 2901 2901 2901 2901 2901
3012 3009 3006 3002 2999 2995 2991 2987 2983 2979 2976 2972 2969 2966 2963 2961 2959 2957 2955 2953 2951 2949 2947 2946 2944 2942 2940 2938 2936 2934 2932 2930 2927 2925 2923 2921 2919 2917 2916 2915 2914 2913 2912 2913 2912 2910 2907 2906 2905 2905 2904 2903 2902 2901 2900 2900 2900 2900 2900 2900 2899 2900 2900 2901 2901 2901 2901 2901 2901
3012 3009 3006 3002 2999 2995 2992 2987 2983 2980 2976 2972 2969 2967 2964 2962 2959 2957 2955 2953 2952 2950 2948 2947 2945 2943 2941 2939 2937 2935 2933 2932 2929 2927 2925 2924 2922 2921 2919 2918 2917 2915 2914 2914 2914 2912 2910 2908 2906 2906 2905 2904 2903 2902 2902 2902 2902 2901 2901 2900 2900 2900 2901 2901 2901 2901 2901 2901 2901
3012 3009 3006 3002 2999 2996 2992 2988 2984 2980 2977 2973 2970 2967 2964 2962 2960 2958 2956 2954 2952 2950 2949 2947 2946 2944 2942 2940 2938 2937 2935 2933 2931 2929 2928 2926 2925 2923 2922 2920 2918 2917 2915 2914 2913 2912 2912 2910 2908 2907 2906 2906 2905 2904 2903 2903 2902 2902 2902 2902 2902 2902 2902 2902 2902 2902 2902 2901 2901
3013 3009 3006 3003 2999 2996 2992 2988 2984 2981 2977 2973 2970 2967 2965 2963 2960 2958 2956 2954 2953 2951 2949 2948 2946 2944 2942 2941 2939 2937 2936 2934 2933 2931 2930 2928 2927 2926 2923 2921 2919 2918 2917 2915 2913 2912 2912 2911 2910 2909 2909 2908 2907 2906 2905 2904 2904 2904 2903 2903 2903 2902 2902 2902 2902 2902 2902 2902 2902
3013 3010 3006 3003 3000 2996 2992 2988 2985 2981 2977 2974 2971 2968 2966 2963 2961 2959 2957 2955 2953 2952 2950 2948 2947 2945 2943 2942 2940 2938 2937 2936 2934 2932 2931 2930 2929 2927 2925 2922 2921 2920 2919 2916 2914 2913 2913 2912 2912 2912 2911 2910 2909 2907 2906 2906 2905 2905 2904 2904 2903 2903 2903 2903 2903 2903 2903 2902 2902
3013 3010 3007 3003 3000 2996 2992 2989 2985 2982 2978 2975 2972 2969 2967 2964 2962 2960 2958 2956 2954 2952 2950 2949 2947 2946 2944 2942 2941 2939 2938 2937 2935 2933 2932 2931 2930 2928 2927 2924 2923 2922 2921 2918 2917 2915 2914 2913 2913 2913 2912 2911 2910 2909 2908 2907 2907 2906 2906 2905 2904 2903 2903 2903 2903 2903 2903 2903 2902
3013 3010 3007 3003 3000 2997 2993 2989 2986 2982 2979 2976 2973 2970 2968 2965 2963 2961 2958 2957 2955 2953 2951 2949 2948 2946 2945 2943 2942 2940 2939 2937 2936 2934 2933 2932 2931 2929 2928 2926 2925 2924 2923 2920 2918 2917 2916 2914 2914 2914 2913 2912 2912 2910 2909 2908 2907 2907 2907 2906 2905 2904 2904 2903 2903 2903 2903 2903 2902
3013 3010 3007 3003 3000 2997 2993 2990 2987 2983 2980 2977 2974 2971 2968 2966 2963 2961 2959 2957 2955 2954 2952 2950 2949 2947 2946 2944 2942 2941 2939 2938 2937 2935 2933 2932 2931 2930 2929 2928 2927 2926 2925 2921 2920 2919 2917 2916 2915 2915 2915 2914 2913 2912 2911 2910 2909 2908 2907 2907 2906 2905 2904 2904 2903 2903 2903 2903 2903
3013 3010 3007 3004 3001 2997 2994 2991 2987 2984 2981 2977 2975 2972 2969 2967 2964 2962 2960 2958 2956 2954 2952 2951 2949 2947 2946 2945 2943 2942 2940 2938 2937 2936 2934 2933 2932 2931 2930 2929 2927 2927 2927 2923 2922 2920 2919 2917 2916 2915 2915 2915 2914 2913 2912 2912 2911 2910 2909 2908 2907 2906 2905 2905 2905 2904 2904 2903 2903
3013 3010 3007 3004 3001 2998 2994 2991 2988 2985 2982 2978 2976 2973 2970 2968 2965 2963 2961 2959 2957 2955 2953 2952 2950 2948 2946 2945 2943 2942 2941 2939 2938 2936 2935 2934 2933 2932 2931 2930 2928 2928 2928 2926 2923 2921 2920 2918 2917 2916 2915 2915 2914 2914 2913 2912 2912 2911 2910 2909 2908 2907 2907 2906 2905 2905 2904 2904 2903
3013 3011 3007 3005 3002 2998 2995 2992 2989 2986 2982 2979 2977 2974 2971 2968 2966 2964 2962 2959 2957 2956 2954 2952 2951 2949 2947 2946 2944 2942 2941 2940 2938 2937 2936 2934 2933 2932 2932 2931 2929 2929 2929 2928 2924 2922 2921 2919 2918 2917 2916 2915 2914 2914 2913 2913 2912 2912 2911 2910 2909 2908 2907 2907 2906 2905 2904 2904 2903
3013 3011 3008 3005 3002 2999 2996 2992 2989 2986 2983 2980 2977 2974 2972 2969 2967 2964 2962 2960 2958 2956 2954 2953 2951 2950 2948 2946 2945 2943 2942 2940 2939 2937 2936 2935 2934 2933 2932 2931 2930 2929 2929 2930 2926 2923 2922 2921 2919 2917 2916 2916 2915 2914 2914 2913 2913 2912 2911 2910 2909 2908 2907 2907 2906 2905 2904 2904 2903
3014 3011 3008 3005 3002 2999 2996 2993 2990 2987 2984 2981 2977 2975 2972 2969 2967 2965 2963 2961 2959 2957 2955 2953 2952 2950 2948 2947 2945 2943 2942 2940 2939 2938 2936 2935 2934 2933 2932 2931 2931 2930 2929 2930 2927 2924 2922 2922 2920 2918 2917 2916 2915 2915 2914 2914 2913 2912 2911 2910 2909 2909 2908 2907 2906 2905 2904 2903 2903
3014 3011 3008 3005 3002 3000 2997 2994 2991 2988 2985 2981 2978 2975 2972 2970 2967 2965 2963 2961 2959 2957 2955 2954 2952 2950 2948 2947 2945 2944 2942 2941 2939 2938 2937 2935 2934 2933 2932 2931 2931 2930 2929 2929 2927 2925 2923 2922 2921 2919 2917 2916 2915 2915 2914 2913 2913 2912 2911 2910 2909 2909 2908 2907 2906 2905 2904 2903 2902
3014 3011 3008 3006 3003 3000 2997 2994 2991 2988 2985 2982 2979 2976 2973 2970 2968 2965 2963 2961 2959 2957 2955 2954 2952 2950 2949 2947 2946 2944 2943 2942 2940 2938 2937 2936 2934 2933 2932 2931 2930 2929 2928 2928 2927 2925 2923 2922 2922 2921 2919 2917 2916 2915 2914 2913 2912 2912 2911 2910 2909 2908 2907 2907 2906 2905 2904 2903 2902
3014 3012 3009 3006 3003 3001 2997 2995 2992 2989 2986 2983 2980 2977 2973 2971 2968 2966 2964 2962 2960 2957 2956 2954 2952 2951 2949 2947 2946 2945 2944 2942 2941 2939 2937 2936 2935 2933 2932 2931 2930 2929 2928 2927 2927 2926 2924 2922 2922 2921 2920 2918 2917 2915 2914 2913 2912 2912 2911 2910 2909 2908 2907 2906 2905 2905 2904 2903 2902
3015 3012 3009 3007 3004 3001 2998 2995 2992 2990 2987 2984 2980 2977 2974 2971 2969 2967 2964 2962 2960 2958 2956 2954 2952 2951 2949 2947 2946 2945 2944 2942 2941 2940 2938 2937 2935 2934 2933 2932 2930 2929 2928 2927 2927 2926 2925 2923 2921 2920 2919 2918 2917 2916 2914 2913 2912 2911 2910 2909 2908 2907 2907 2906 2905 2904 2903 2902 2902
3015 3012 3010 3007 3004 3002 2999 2996 2993 2991 2987 2985 2982 2978 2975 2972 2970 2967 2965 2963 2961 2959 2957 2955 2953 2951 2949 2947 2946 2945 2944 2943 2942 2940 2939 2937 2936 2935 2933 2932 2931 2929 2928 2927 2926 2925 2924 2923 2922 2920 2918 2918 2917 2915 2914 2913 2912 2911 2910 2909 2908 2907 2906 2905 2904 2903 2902 2902 2900